User: anonymous
Location: Cow Canyon Saddle
(34.2291°N, 117.6698°W)
Time: 01:07:57
(UTC-07:00)
Language:

Lacrosse 5 - Orbit

View from above orbital plane
View from above orbital plane
View from above satellite
View from above satellite

Ground track
Ground track

The orbit data is extracted from the following two-line orbital elements,

1 28646U 05016A   14284.78460586 0.00000350  00000-0  83216-4 0    06
2 28646  57.0090 182.0972 0011602 134.0289 225.9711 14.53524809    03
Epoch (UTC): 11 October 2014 18:49:49
Eccentricity: 0.0011602
inclination: 57.0090°
perigee height: 706 km
apogee height: 722 km
right ascension of ascending node: 182.0972°
argument of perigee: 134.0289°
revolutions per day: 14.53524809
mean anomaly at epoch: 225.9711°
orbit number at epoch: 0

The dashed part of the orbit path shows where the satellite is in the earth's shadow,  

DLR